GSAT0216 (GALILEO 20)

Last updated on Mon Dec 15 2025 00:02:41 GMT+0000 (Coordinated Universal Time)

1 43056U 17079B 25347.36056917 .00000023 00000+0 00000+0 0 9993 2 43056 55.1302 226.6206 0002303 326.7350 33.3311 1.70474029 49836
UTC large
Height (km)
Speed (km/s)
/
Latitude / Longitude
Inclination (degrees)
Orbital Period (minutes)
Azimuth
Elevation
Range (km)
Doppler Factor

Next 0 passes for location: London (51.5072 / 0.1276)

Sorry there are no passes over London.